Zurück zum Katalog

CAT 3

AktivWissenschaftHEO
NORAD 12546·PAYLOAD·🇪🇺 EU

Gestartet Jun 19, 1981 von Guiana Space Centre

Loading…

Nächste Überflüge (nächste 24 Stunden)

TLE

AlterndSource: Space-Track

Epoche: Aug 30, 2026, 21:49 UTC

1 12546U 81057C   26242.90967585  .00009699  00000-0  61089-3 0  9994
2 12546  10.1846 108.7256 5720208 264.2356  31.6103  4.52260374418449

Verfolge CAT 3 in Echtzeit mit AllMySat

Download on the App Store